Home > Weather > Managua > Past weeks

Flag for Nicaragua Past Weather in Managua, Nicaragua — Yesterday and Last 2 Weeks

Now
77 °F

Passing clouds.


Feels Like: 78 °F
Forecast: 76 / 91 °F
Wind: 7 mph from Southeast

Location: Managua A. C. Sandino

Current Time: Jul 25, 2016 at 4:05:59 AM

Latest Report: Jul 25, 2016 at 1:00 AM


Visibility: N/A

Pressure: 29.83 "Hg

Humidity: 83%

Dew Point: 72 °F

Location of ManaguaLocation

Past Weather in Managua — Graph

°F

Managua Temperature Yesterday

Maximum temperature yesterday: 95 °F (at 2:00 PM)
Minimum temperature yesterday: 75 °F (at 6:00 AM)
Average temperature yesterday: 84 °F

High & Low Weather Summary for the Past Weeks

 TemperatureHumidityPressure
High95 °F (Jul 13, 1:00 PM)100% (Jul 19, 4:00 AM)32.52 "Hg (Jul 19, 4:00 AM)
Low72 °F (Jul 20, 3:00 AM)41% (Jul 24, 3:00 PM)29.77 "Hg (Jul 10, 4:00 PM)
Average82 °F74%29.88 "Hg
* Reported Jul 10 1:00 AM — Jul 25 1:00 AM, Managua, Weather by CustomWeather, © 2016

Note: Actual official high and low records may vary slightly from our data, if they occured in-between our weather recording intervals... More about our weather records

Advertising

Managua Weather History for the Previous 24 Hours

Scroll right to see more
 ConditionsComfort  
Time TempWeatherWind HumidityBarometerVisibility
1:00 AM
Mon, Jul 25
77 °FPassing clouds.7 mph83%29.83 "HgN/A
11:00 PM
Sun, Jul 24
77 °FPassing clouds.5 mph83%29.86 "HgN/A
10:00 PM79 °FPassing clouds.7 mph79%29.86 "HgN/A
9:00 PM81 °FPassing clouds.12 mph74%29.86 "HgN/A
8:00 PM82 °FPassing clouds.12 mph66%29.83 "HgN/A
7:00 PM86 °FPassing clouds.14 mph59%29.83 "HgN/A
6:00 PM88 °FPassing clouds.12 mph55%29.83 "HgN/A
5:00 PM91 °FPassing clouds.16 mph46%29.80 "HgN/A
4:00 PM93 °FScattered clouds.16 mph44%29.80 "HgN/A
3:00 PM95 °FPassing clouds.16 mph41%29.80 "HgN/A
2:00 PM95 °FPassing clouds.16 mph47%29.83 "HgN/A
1:00 PM91 °FScattered clouds.16 mph49%29.83 "HgN/A
12:00 PM91 °FScattered clouds.18 mph52%29.86 "HgN/A
11:00 AM88 °FScattered clouds.16 mph62%29.86 "HgN/A
10:00 AM88 °FScattered clouds.12 mph59%29.89 "HgN/A
9:00 AM84 °FPartly sunny.12 mph66%29.89 "HgN/A
8:00 AM79 °FScattered clouds.7 mph79%29.89 "HgN/A
7:00 AM77 °FScattered clouds.5 mph83%29.89 "HgN/A
6:00 AM75 °FScattered clouds.5 mph89%29.89 "HgN/A
5:00 AM77 °FPassing clouds.5 mph83%29.92 "HgN/A
4:00 AM77 °FPassing clouds.5 mph89%29.92 "HgN/A
Weather by CustomWeather, © 2016

See weather overviewHow to use our weather pages